Location: Bonn
(50.7330°N, 7.1000°E)
Time: 13:37:02
(UTC+02:00)

Iridium 67 - Visible Passes

Search period start: 02 September 2014 00:00
Search period end: 12 September 2014 00:00
Orbit: 776 x 779 km, 86.4° (Epoch: 01 September)

Date Brightness Start Highest point End Pass type
(mag) Time Alt. Az. Time Alt. Az. Time Alt. Az.
02 Sep 5.4 22:11:05 14° S 22:15:36 84° E 22:20:51 10° N visible
02 Sep 8.1 23:53:49 10° WSW 23:57:04 17° WNW 00:00:21 10° NNW visible
03 Sep 5.7 21:37:12 10° SSE 21:42:09 50° E 21:47:11 10° NNE visible
03 Sep 7.4 23:18:48 10° SW 23:23:09 26° WNW 23:27:32 10° NNW visible
04 Sep 6.4 21:04:20 10° SE 21:08:49 30° E 21:13:18 10° NNE visible
04 Sep 6.6 22:44:26 10° SSW 22:49:23 43° W 22:54:21 10° N visible
05 Sep 5.7 22:10:32 10° S 22:15:43 72° W 22:20:57 10° N visible
05 Sep 8.3 23:55:25 10° W 23:57:28 12° WNW 23:59:32 10° NW visible
06 Sep 5.5 21:37:02 10° S 21:42:11 69° E 21:47:23 10° N visible
06 Sep 7.9 23:19:42 10° WSW 23:23:28 20° WNW 23:27:16 10° NNW visible
07 Sep 6.0 21:03:57 10° SSE 21:08:47 41° E 21:13:38 10° NNE visible
07 Sep 7.2 22:44:59 10° SW 22:49:36 32° WNW 22:54:16 10° NNW visible
08 Sep 6.6 20:31:20 10° SE 20:35:29 25° E 20:39:39 10° NNE visible
08 Sep 6.3 22:10:48 10° SSW 22:15:53 53° W 22:20:59 10° N visible
09 Sep 5.5 21:37:03 10° S 21:42:16 88° W 21:47:31 10° N visible
09 Sep 8.3 23:20:55 10° W 23:23:50 15° WNW 23:26:46 10° NNW visible
10 Sep 5.6 21:03:43 10° SSE 21:08:47 56° E 21:13:53 10° NNE visible
10 Sep 7.7 22:45:43 10° SW 22:49:53 24° WNW 22:54:05 10° NNW visible
11 Sep 6.2 20:30:48 10° SE 20:35:25 33° E 20:40:03 10° NNE visible
11 Sep 6.9 22:11:14 10° SW 22:16:04 39° WNW 22:20:57 10° N visible
